Year,Month,Day,Hour,Minute,Value (Times are PST for insolation in W/m^2)
2018,06,29,00,00,0.00
2018,06,29,00,01,0.00
2018,06,29,00,02,0.00
2018,06,29,00,03,0.00
2018,06,29,00,04,0.00
2018,06,29,00,05,0.00
2018,06,29,00,06,0.00
2018,06,29,00,07,0.00
2018,06,29,00,08,0.00
2018,06,29,00,09,0.00
2018,06,29,00,10,0.00
2018,06,29,00,11,0.00
2018,06,29,00,12,0.00
2018,06,29,00,13,0.00
2018,06,29,00,14,0.00
2018,06,29,00,15,0.00
2018,06,29,00,16,0.00
2018,06,29,00,17,0.00
2018,06,29,00,18,0.00
2018,06,29,00,19,0.00
2018,06,29,00,20,0.00
2018,06,29,00,21,0.00
2018,06,29,00,22,0.00
2018,06,29,00,23,0.00
2018,06,29,00,24,0.00
2018,06,29,00,25,0.00
2018,06,29,00,26,0.00
2018,06,29,00,27,0.00
2018,06,29,00,28,0.00
2018,06,29,00,29,0.00
2018,06,29,00,30,0.00
2018,06,29,00,31,0.00
2018,06,29,00,32,0.00
2018,06,29,00,33,0.00
2018,06,29,00,34,0.00
2018,06,29,00,35,0.00
2018,06,29,00,36,0.00
2018,06,29,00,37,0.00
2018,06,29,00,38,0.00
2018,06,29,00,39,0.00
2018,06,29,00,40,0.00
2018,06,29,00,41,0.00
2018,06,29,00,42,0.00
2018,06,29,00,43,0.00
2018,06,29,00,44,0.00
2018,06,29,00,45,0.00
2018,06,29,00,46,0.00
2018,06,29,00,47,0.00
2018,06,29,00,48,0.00
2018,06,29,00,49,0.00
2018,06,29,00,50,0.00
2018,06,29,00,51,0.00
2018,06,29,00,52,0.00
2018,06,29,00,53,0.00
2018,06,29,00,54,0.00
2018,06,29,00,55,0.00
2018,06,29,00,56,0.00
2018,06,29,00,57,0.00
2018,06,29,00,58,0.00
2018,06,29,00,59,0.00
2018,06,29,01,00,0.00
2018,06,29,01,01,0.00
2018,06,29,01,02,0.00
2018,06,29,01,03,0.00
2018,06,29,01,04,0.00
2018,06,29,01,05,0.00
2018,06,29,01,06,0.00
2018,06,29,01,07,0.00
2018,06,29,01,08,0.00
2018,06,29,01,09,0.00
2018,06,29,01,10,0.00
2018,06,29,01,11,0.00
2018,06,29,01,12,0.00
2018,06,29,01,13,0.00
2018,06,29,01,14,0.00
2018,06,29,01,15,0.00
2018,06,29,01,16,0.00
2018,06,29,01,17,0.00
2018,06,29,01,18,0.00
2018,06,29,01,19,0.00
2018,06,29,01,20,0.00
2018,06,29,01,21,0.00
2018,06,29,01,22,0.00
2018,06,29,01,23,0.00
2018,06,29,01,24,0.00
2018,06,29,01,25,0.00
2018,06,29,01,26,0.00
2018,06,29,01,27,0.00
2018,06,29,01,28,0.00
2018,06,29,01,29,0.00
2018,06,29,01,30,0.00
2018,06,29,01,31,0.00
2018,06,29,01,32,0.00
2018,06,29,01,33,0.00
2018,06,29,01,34,0.00
2018,06,29,01,35,0.00
2018,06,29,01,36,0.00
2018,06,29,01,37,0.00
2018,06,29,01,38,0.00
2018,06,29,01,39,0.00
2018,06,29,01,40,0.00
2018,06,29,01,41,0.00
2018,06,29,01,42,0.00
2018,06,29,01,43,0.00
2018,06,29,01,44,0.00
2018,06,29,01,45,0.00
2018,06,29,01,46,0.00
2018,06,29,01,47,0.00
2018,06,29,01,48,0.00
2018,06,29,01,49,0.00
2018,06,29,01,50,0.00
2018,06,29,01,51,0.00
2018,06,29,01,52,0.00
2018,06,29,01,53,0.00
2018,06,29,01,54,0.00
2018,06,29,01,55,0.00
2018,06,29,01,56,0.00
2018,06,29,01,57,0.00
2018,06,29,01,58,0.00
2018,06,29,01,59,0.00
2018,06,29,02,00,0.00
2018,06,29,02,01,0.00
2018,06,29,02,02,0.00
2018,06,29,02,03,0.00
2018,06,29,02,04,0.00
2018,06,29,02,05,0.00
2018,06,29,02,06,0.00
2018,06,29,02,07,0.00
2018,06,29,02,08,0.00
2018,06,29,02,09,0.00
2018,06,29,02,10,0.00
2018,06,29,02,11,0.00
2018,06,29,02,12,0.00
2018,06,29,02,13,0.00
2018,06,29,02,14,0.00
2018,06,29,02,15,0.00
2018,06,29,02,16,0.00
2018,06,29,02,17,0.00
2018,06,29,02,18,0.00
2018,06,29,02,19,0.00
2018,06,29,02,20,0.00
2018,06,29,02,21,0.00
2018,06,29,02,22,0.00
2018,06,29,02,23,0.00
2018,06,29,02,24,0.00
2018,06,29,02,25,0.00
2018,06,29,02,26,0.00
2018,06,29,02,27,0.00
2018,06,29,02,28,0.00
2018,06,29,02,29,0.00
2018,06,29,02,30,0.00
2018,06,29,02,31,0.00
2018,06,29,02,32,0.00
2018,06,29,02,33,0.00
2018,06,29,02,34,0.00
2018,06,29,02,35,0.00
2018,06,29,02,36,0.00
2018,06,29,02,37,0.00
2018,06,29,02,38,0.00
2018,06,29,02,39,0.00
2018,06,29,02,40,0.00
2018,06,29,02,41,0.00
2018,06,29,02,42,0.00
2018,06,29,02,43,0.00
2018,06,29,02,44,0.00
2018,06,29,02,45,0.00
2018,06,29,02,46,0.00
2018,06,29,02,47,0.00
2018,06,29,02,48,0.00
2018,06,29,02,49,0.00
2018,06,29,02,50,0.00
2018,06,29,02,51,0.00
2018,06,29,02,52,0.00
2018,06,29,02,53,0.00
2018,06,29,02,54,0.00
2018,06,29,02,55,0.00
2018,06,29,02,56,0.00
2018,06,29,02,57,0.00
2018,06,29,02,58,0.00
2018,06,29,02,59,0.00
2018,06,29,03,00,0.00
2018,06,29,03,01,0.00
2018,06,29,03,02,0.00
2018,06,29,03,03,0.00
2018,06,29,03,04,0.00
2018,06,29,03,05,0.00
2018,06,29,03,06,0.00
2018,06,29,03,07,0.00
2018,06,29,03,08,0.00
2018,06,29,03,09,0.00
2018,06,29,03,10,0.00
2018,06,29,03,11,0.00
2018,06,29,03,12,0.00
2018,06,29,03,13,0.00
2018,06,29,03,14,0.00
2018,06,29,03,15,0.00
2018,06,29,03,16,0.00
2018,06,29,03,17,0.00
2018,06,29,03,18,0.00
2018,06,29,03,19,0.00
2018,06,29,03,20,0.00
2018,06,29,03,21,0.00
2018,06,29,03,22,0.00
2018,06,29,03,23,0.00
2018,06,29,03,24,0.00
2018,06,29,03,25,0.00
2018,06,29,03,26,0.00
2018,06,29,03,27,0.00
2018,06,29,03,28,0.00
2018,06,29,03,29,0.00
2018,06,29,03,30,0.00
2018,06,29,03,31,0.00
2018,06,29,03,32,0.00
2018,06,29,03,33,0.00
2018,06,29,03,34,0.00
2018,06,29,03,35,0.00
2018,06,29,03,36,0.00
2018,06,29,03,37,0.00
2018,06,29,03,38,0.00
2018,06,29,03,39,0.00
2018,06,29,03,40,0.00
2018,06,29,03,41,0.00
2018,06,29,03,42,0.00
2018,06,29,03,43,0.00
2018,06,29,03,44,0.00
2018,06,29,03,45,0.00
2018,06,29,03,46,0.00
2018,06,29,03,47,0.00
2018,06,29,03,48,0.00
2018,06,29,03,49,0.00
2018,06,29,03,50,0.00
2018,06,29,03,51,0.00
2018,06,29,03,52,0.00
2018,06,29,03,53,0.00
2018,06,29,03,54,0.00
2018,06,29,03,55,0.00
2018,06,29,03,56,0.00
2018,06,29,03,57,0.00
2018,06,29,03,58,0.00
2018,06,29,03,59,0.00
2018,06,29,04,00,0.00
2018,06,29,04,01,0.00
2018,06,29,04,02,0.00
2018,06,29,04,03,0.00
2018,06,29,04,04,0.00
2018,06,29,04,05,0.00
2018,06,29,04,06,0.00
2018,06,29,04,07,0.00
2018,06,29,04,08,0.00
2018,06,29,04,09,0.00
2018,06,29,04,10,0.00
2018,06,29,04,11,0.00
2018,06,29,04,12,0.00
2018,06,29,04,13,0.00
2018,06,29,04,14,0.00
2018,06,29,04,15,0.00
2018,06,29,04,16,0.00
2018,06,29,04,17,0.00
2018,06,29,04,18,0.00
2018,06,29,04,19,0.00
2018,06,29,04,20,0.00
2018,06,29,04,21,0.00
2018,06,29,04,22,0.00
2018,06,29,04,23,0.00
2018,06,29,04,24,0.00
2018,06,29,04,25,0.00
2018,06,29,04,26,0.00
2018,06,29,04,27,0.00
2018,06,29,04,28,0.00
2018,06,29,04,29,0.00
2018,06,29,04,30,0.00
2018,06,29,04,31,0.00
2018,06,29,04,32,0.00
2018,06,29,04,33,0.00
2018,06,29,04,34,0.00
2018,06,29,04,35,0.00
2018,06,29,04,36,0.00
2018,06,29,04,37,0.00
2018,06,29,04,38,0.00
2018,06,29,04,39,0.00
2018,06,29,04,40,0.00
2018,06,29,04,41,0.00
2018,06,29,04,42,0.00
2018,06,29,04,43,0.00
2018,06,29,04,44,0.00
2018,06,29,04,45,0.00
2018,06,29,04,46,0.00
2018,06,29,04,47,0.00
2018,06,29,04,48,0.00
2018,06,29,04,49,0.00
2018,06,29,04,50,0.00
2018,06,29,04,51,0.00
2018,06,29,04,52,0.00
2018,06,29,04,53,0.00
2018,06,29,04,54,0.00
2018,06,29,04,55,0.00
2018,06,29,04,56,0.00
2018,06,29,04,57,0.00
2018,06,29,04,58,0.00
2018,06,29,04,59,0.00
2018,06,29,05,00,0.00
2018,06,29,05,01,0.00
2018,06,29,05,02,0.00
2018,06,29,05,03,0.00
2018,06,29,05,04,0.00
2018,06,29,05,05,0.00
2018,06,29,05,06,0.00
2018,06,29,05,07,0.00
2018,06,29,05,08,0.00
2018,06,29,05,09,0.00
2018,06,29,05,10,0.00
2018,06,29,05,11,0.00
2018,06,29,05,12,0.00
2018,06,29,05,13,0.00
2018,06,29,05,14,0.00
2018,06,29,05,15,0.00
2018,06,29,05,16,0.00
2018,06,29,05,17,0.00
2018,06,29,05,18,0.00
2018,06,29,05,19,0.00
2018,06,29,05,20,0.00
2018,06,29,05,21,0.00
2018,06,29,05,22,0.00
2018,06,29,05,23,0.00
2018,06,29,05,24,0.00
2018,06,29,05,25,0.00
2018,06,29,05,26,0.00
2018,06,29,05,27,0.00
2018,06,29,05,28,1.40
2018,06,29,05,29,5.00
2018,06,29,05,30,5.00
2018,06,29,05,31,5.00
2018,06,29,05,32,5.00
2018,06,29,05,33,5.00
2018,06,29,05,34,5.30
2018,06,29,05,35,7.00
2018,06,29,05,36,7.00
2018,06,29,05,37,7.00
2018,06,29,05,38,7.00
2018,06,29,05,39,7.00
2018,06,29,05,40,7.00
2018,06,29,05,41,7.00
2018,06,29,05,42,7.00
2018,06,29,05,43,7.00
2018,06,29,05,44,7.00
2018,06,29,05,45,8.30
2018,06,29,05,46,9.00
2018,06,29,05,47,7.30
2018,06,29,05,48,7.00
2018,06,29,05,49,7.00
2018,06,29,05,50,6.20
2018,06,29,05,51,5.00
2018,06,29,05,52,6.30
2018,06,29,05,53,7.00
2018,06,29,05,54,7.00
2018,06,29,05,55,7.00
2018,06,29,05,56,7.00
2018,06,29,05,57,7.80
2018,06,29,05,58,9.00
2018,06,29,05,59,9.00
2018,06,29,06,00,9.00
2018,06,29,06,01,9.00
2018,06,29,06,02,9.00
2018,06,29,06,03,9.00
2018,06,29,06,04,9.00
2018,06,29,06,05,9.00
2018,06,29,06,06,9.00
2018,06,29,06,07,9.00
2018,06,29,06,08,9.00
2018,06,29,06,09,11.00
2018,06,29,06,10,11.00
2018,06,29,06,11,11.40
2018,06,29,06,12,12.00
2018,06,29,06,13,12.00
2018,06,29,06,14,13.50
2018,06,29,06,15,14.00
2018,06,29,06,16,14.00
2018,06,29,06,17,14.60
2018,06,29,06,18,16.00
2018,06,29,06,19,17.10
2018,06,29,06,20,18.60
2018,06,29,06,21,20.50
2018,06,29,06,22,22.90
2018,06,29,06,23,25.00
2018,06,29,06,24,25.20
2018,06,29,06,25,26.00
2018,06,29,06,26,27.00
2018,06,29,06,27,28.00
2018,06,29,06,28,28.00
2018,06,29,06,29,28.10
2018,06,29,06,30,30.00
2018,06,29,06,31,30.60
2018,06,29,06,32,32.00
2018,06,29,06,33,32.00
2018,06,29,06,34,32.70
2018,06,29,06,35,33.00
2018,06,29,06,36,34.80
2018,06,29,06,37,35.30
2018,06,29,06,38,37.60
2018,06,29,06,39,39.40
2018,06,29,06,40,40.00
2018,06,29,06,41,40.00
2018,06,29,06,42,39.20
2018,06,29,06,43,39.00
2018,06,29,06,44,36.70
2018,06,29,06,45,35.00
2018,06,29,06,46,34.20
2018,06,29,06,47,32.50
2018,06,29,06,48,30.80
2018,06,29,06,49,28.50
2018,06,29,06,50,28.00
2018,06,29,06,51,28.30
2018,06,29,06,52,30.80
2018,06,29,06,53,33.80
2018,06,29,06,54,36.00
2018,06,29,06,55,38.30
2018,06,29,06,56,39.00
2018,06,29,06,57,37.20
2018,06,29,06,58,36.70
2018,06,29,06,59,35.00
2018,06,29,07,00,34.20
2018,06,29,07,01,33.00
2018,06,29,07,02,32.30
2018,06,29,07,03,32.00
2018,06,29,07,04,32.00
2018,06,29,07,05,33.00
2018,06,29,07,06,33.60
2018,06,29,07,07,35.80
2018,06,29,07,08,38.00
2018,06,29,07,09,39.60
2018,06,29,07,10,40.00
2018,06,29,07,11,41.90
2018,06,29,07,12,44.30
2018,06,29,07,13,46.30
2018,06,29,07,14,47.80
2018,06,29,07,15,50.00
2018,06,29,07,16,52.30
2018,06,29,07,17,53.00
2018,06,29,07,18,51.20
2018,06,29,07,19,51.00
2018,06,29,07,20,50.40
2018,06,29,07,21,49.00
2018,06,29,07,22,48.00
2018,06,29,07,23,48.30
2018,06,29,07,24,50.60
2018,06,29,07,25,53.70
2018,06,29,07,26,54.30
2018,06,29,07,27,56.00
2018,06,29,07,28,56.00
2018,06,29,07,29,54.90
2018,06,29,07,30,53.40
2018,06,29,07,31,50.00
2018,06,29,07,32,47.20
2018,06,29,07,33,46.90
2018,06,29,07,34,46.00
2018,06,29,07,35,46.00
2018,06,29,07,36,46.00
2018,06,29,07,37,46.60
2018,06,29,07,38,48.50
2018,06,29,07,39,50.90
2018,06,29,07,40,53.00
2018,06,29,07,41,52.50
2018,06,29,07,42,50.20
2018,06,29,07,43,48.00
2018,06,29,07,44,45.00
2018,06,29,07,45,41.00
2018,06,29,07,46,37.20
2018,06,29,07,47,35.00
2018,06,29,07,48,35.00
2018,06,29,07,49,34.20
2018,06,29,07,50,34.00
2018,06,29,07,51,35.00
2018,06,29,07,52,36.50
2018,06,29,07,53,38.80
2018,06,29,07,54,40.30
2018,06,29,07,55,42.00
2018,06,29,07,56,42.00
2018,06,29,07,57,42.00
2018,06,29,07,58,42.00
2018,06,29,07,59,42.00
2018,06,29,08,00,42.00
2018,06,29,08,01,44.00
2018,06,29,08,02,44.60
2018,06,29,08,03,47.20
2018,06,29,08,04,50.00
2018,06,29,08,05,53.00
2018,06,29,08,06,58.60
2018,06,29,08,07,64.70
2018,06,29,08,08,70.60
2018,06,29,08,09,74.80
2018,06,29,08,10,77.80
2018,06,29,08,11,80.00
2018,06,29,08,12,82.20
2018,06,29,08,13,85.30
2018,06,29,08,14,89.60
2018,06,29,08,15,93.30
2018,06,29,08,16,95.00
2018,06,29,08,17,95.00
2018,06,29,08,18,96.00
2018,06,29,08,19,97.70
2018,06,29,08,20,99.60
2018,06,29,08,21,103.60
2018,06,29,08,22,105.30
2018,06,29,08,23,106.50
2018,06,29,08,24,104.60
2018,06,29,08,25,101.90
2018,06,29,08,26,98.10
2018,06,29,08,27,95.50
2018,06,29,08,28,93.20
2018,06,29,08,29,93.30
2018,06,29,08,30,95.00
2018,06,29,08,31,95.80
2018,06,29,08,32,97.00
2018,06,29,08,33,97.00
2018,06,29,08,34,97.00
2018,06,29,08,35,97.00
2018,06,29,08,36,97.10
2018,06,29,08,37,97.70
2018,06,29,08,38,97.00
2018,06,29,08,39,95.90
2018,06,29,08,40,92.40
2018,06,29,08,41,90.20
2018,06,29,08,42,86.40
2018,06,29,08,43,82.40
2018,06,29,08,44,78.40
2018,06,29,08,45,76.60
2018,06,29,08,46,76.00
2018,06,29,08,47,76.00
2018,06,29,08,48,76.00
2018,06,29,08,49,77.00
2018,06,29,08,50,79.60
2018,06,29,08,51,83.80
2018,06,29,08,52,88.00
2018,06,29,08,53,94.10
2018,06,29,08,54,100.30
2018,06,29,08,55,105.80
2018,06,29,08,56,113.40
2018,06,29,08,57,118.50
2018,06,29,08,58,122.10
2018,06,29,08,59,126.20
2018,06,29,09,00,129.10
2018,06,29,09,01,130.00
2018,06,29,09,02,128.50
2018,06,29,09,03,125.20
2018,06,29,09,04,120.30
2018,06,29,09,05,115.40
2018,06,29,09,06,112.80
2018,06,29,09,07,111.00
2018,06,29,09,08,111.00
2018,06,29,09,09,112.50
2018,06,29,09,10,113.00
2018,06,29,09,11,114.30
2018,06,29,09,12,116.60
2018,06,29,09,13,119.20
2018,06,29,09,14,123.10
2018,06,29,09,15,129.50
2018,06,29,09,16,137.30
2018,06,29,09,17,145.40
2018,06,29,09,18,152.00
2018,06,29,09,19,159.10
2018,06,29,09,20,162.40
2018,06,29,09,21,164.00
2018,06,29,09,22,168.90
2018,06,29,09,23,174.80
2018,06,29,09,24,182.50
2018,06,29,09,25,190.50
2018,06,29,09,26,194.50
2018,06,29,09,27,200.10
2018,06,29,09,28,206.70
2018,06,29,09,29,216.80
2018,06,29,09,30,220.80
2018,06,29,09,31,220.10
2018,06,29,09,32,219.00
2018,06,29,09,33,213.30
2018,06,29,09,34,213.60
2018,06,29,09,35,212.00
2018,06,29,09,36,209.70
2018,06,29,09,37,203.70
2018,06,29,09,38,195.60
2018,06,29,09,39,190.00
2018,06,29,09,40,190.80
2018,06,29,09,41,193.80
2018,06,29,09,42,196.00
2018,06,29,09,43,197.00
2018,06,29,09,44,193.90
2018,06,29,09,45,190.40
2018,06,29,09,46,182.00
2018,06,29,09,47,174.10
2018,06,29,09,48,167.50
2018,06,29,09,49,165.00
2018,06,29,09,50,165.00
2018,06,29,09,51,163.40
2018,06,29,09,52,156.40
2018,06,29,09,53,144.50
2018,06,29,09,54,133.60
2018,06,29,09,55,128.80
2018,06,29,09,56,124.90
2018,06,29,09,57,119.90
2018,06,29,09,58,111.20
2018,06,29,09,59,100.80
2018,06,29,10,00,94.30
2018,06,29,10,01,89.50
2018,06,29,10,02,88.00
2018,06,29,10,03,88.00
2018,06,29,10,04,90.00
2018,06,29,10,05,95.70
2018,06,29,10,06,103.60
2018,06,29,10,07,114.40
2018,06,29,10,08,124.90
2018,06,29,10,09,132.90
2018,06,29,10,10,139.10
2018,06,29,10,11,139.70
2018,06,29,10,12,140.50
2018,06,29,10,13,142.00
2018,06,29,10,14,145.70
2018,06,29,10,15,141.40
2018,06,29,10,16,132.00
2018,06,29,10,17,121.30
2018,06,29,10,18,108.80
2018,06,29,10,19,97.10
2018,06,29,10,20,90.70
2018,06,29,10,21,88.00
2018,06,29,10,22,88.80
2018,06,29,10,23,92.50
2018,06,29,10,24,96.00
2018,06,29,10,25,101.60
2018,06,29,10,26,111.10
2018,06,29,10,27,124.20
2018,06,29,10,28,138.20
2018,06,29,10,29,147.40
2018,06,29,10,30,152.70
2018,06,29,10,31,158.80
2018,06,29,10,32,167.60
2018,06,29,10,33,177.10
2018,06,29,10,34,179.60
2018,06,29,10,35,198.00
2018,06,29,10,36,206.80
2018,06,29,10,37,219.40
2018,06,29,10,38,233.20
2018,06,29,10,39,246.10
2018,06,29,10,40,259.10
2018,06,29,10,41,270.50
2018,06,29,10,42,283.30
2018,06,29,10,43,283.90
2018,06,29,10,44,280.20
2018,06,29,10,45,280.00
2018,06,29,10,46,282.30
2018,06,29,10,47,283.00
2018,06,29,10,48,287.00
2018,06,29,10,49,303.40
2018,06,29,10,50,343.20
2018,06,29,10,51,396.10
2018,06,29,10,52,456.60
2018,06,29,10,53,511.20
2018,06,29,10,54,527.80
2018,06,29,10,55,461.30
2018,06,29,10,56,362.90
2018,06,29,10,57,335.50
2018,06,29,10,58,312.90
2018,06,29,10,59,272.50
2018,06,29,11,00,243.60
2018,06,29,11,01,225.80
2018,06,29,11,02,220.20
2018,06,29,11,03,217.40
2018,06,29,11,04,213.20
2018,06,29,11,05,207.30
2018,06,29,11,06,193.20
2018,06,29,11,07,176.00
2018,06,29,11,08,164.90
2018,06,29,11,09,162.10
2018,06,29,11,10,154.00
2018,06,29,11,11,146.30
2018,06,29,11,12,141.60
2018,06,29,11,13,138.90
2018,06,29,11,14,133.90
2018,06,29,11,15,128.20
2018,06,29,11,16,123.40
2018,06,29,11,17,123.30
2018,06,29,11,18,125.00
2018,06,29,11,19,125.80
2018,06,29,11,20,126.00
2018,06,29,11,21,122.40
2018,06,29,11,22,118.70
2018,06,29,11,23,120.70
2018,06,29,11,24,134.30
2018,06,29,11,25,153.40
2018,06,29,11,26,168.70
2018,06,29,11,27,176.60
2018,06,29,11,28,182.90
2018,06,29,11,29,187.30
2018,06,29,11,30,185.30
2018,06,29,11,31,179.30
2018,06,29,11,32,184.30
2018,06,29,11,33,196.50
2018,06,29,11,34,204.60
2018,06,29,11,35,216.20
2018,06,29,11,36,235.30
2018,06,29,11,37,253.30
2018,06,29,11,38,255.80
2018,06,29,11,39,246.10
2018,06,29,11,40,242.10
2018,06,29,11,41,247.10
2018,06,29,11,42,250.00
2018,06,29,11,43,244.70
2018,06,29,11,44,231.00
2018,06,29,11,45,218.40
2018,06,29,11,46,207.60
2018,06,29,11,47,202.30
2018,06,29,11,48,203.60
2018,06,29,11,49,214.10
2018,06,29,11,50,220.30
2018,06,29,11,51,216.30
2018,06,29,11,52,208.70
2018,06,29,11,53,208.70
2018,06,29,11,54,215.80
2018,06,29,11,55,225.20
2018,06,29,11,56,235.60
2018,06,29,11,57,237.50
2018,06,29,11,58,236.00
2018,06,29,11,59,231.30
2018,06,29,12,00,224.30
2018,06,29,12,01,212.60
2018,06,29,12,02,205.40
2018,06,29,12,03,202.70
2018,06,29,12,04,199.70
2018,06,29,12,05,197.10
2018,06,29,12,06,192.10
2018,06,29,12,07,186.60
2018,06,29,12,08,181.50
2018,06,29,12,09,178.50
2018,06,29,12,10,181.30
2018,06,29,12,11,188.50
2018,06,29,12,12,194.60
2018,06,29,12,13,197.30
2018,06,29,12,14,198.50
2018,06,29,12,15,196.20
2018,06,29,12,16,196.00
2018,06,29,12,17,199.00
2018,06,29,12,18,204.80
2018,06,29,12,19,213.10
2018,06,29,12,20,218.00
2018,06,29,12,21,218.80
2018,06,29,12,22,222.70
2018,06,29,12,23,222.30
2018,06,29,12,24,213.20
2018,06,29,12,25,201.40
2018,06,29,12,26,190.60
2018,06,29,12,27,179.40
2018,06,29,12,28,169.40
2018,06,29,12,29,161.10
2018,06,29,12,30,158.00
2018,06,29,12,31,159.30
2018,06,29,12,32,158.40
2018,06,29,12,33,153.40
2018,06,29,12,34,148.60
2018,06,29,12,35,145.40
2018,06,29,12,36,144.80
2018,06,29,12,37,147.00
2018,06,29,12,38,148.00
2018,06,29,12,39,148.80
2018,06,29,12,40,150.90
2018,06,29,12,41,156.00
2018,06,29,12,42,164.80
2018,06,29,12,43,176.90
2018,06,29,12,44,188.60
2018,06,29,12,45,195.30
2018,06,29,12,46,198.50
2018,06,29,12,47,201.70
2018,06,29,12,48,201.70
2018,06,29,12,49,199.70
2018,06,29,12,50,197.30
2018,06,29,12,51,191.20
2018,06,29,12,52,184.70
2018,06,29,12,53,184.60
2018,06,29,12,54,191.20
2018,06,29,12,55,203.00
2018,06,29,12,56,210.40
2018,06,29,12,57,216.40
2018,06,29,12,58,221.60
2018,06,29,12,59,221.70
2018,06,29,13,00,218.70
2018,06,29,13,01,211.50
2018,06,29,13,02,204.00
2018,06,29,13,03,204.50
2018,06,29,13,04,206.40
2018,06,29,13,05,209.10
2018,06,29,13,06,212.30
2018,06,29,13,07,215.40
2018,06,29,13,08,219.60
2018,06,29,13,09,221.30
2018,06,29,13,10,224.00
2018,06,29,13,11,228.10
2018,06,29,13,12,233.10
2018,06,29,13,13,240.60
2018,06,29,13,14,248.30
2018,06,29,13,15,256.50
2018,06,29,13,16,264.70
2018,06,29,13,17,269.80
2018,06,29,13,18,272.00
2018,06,29,13,19,270.40
2018,06,29,13,20,264.50
2018,06,29,13,21,256.70
2018,06,29,13,22,251.50
2018,06,29,13,23,253.70
2018,06,29,13,24,257.90
2018,06,29,13,25,261.90
2018,06,29,13,26,268.60
2018,06,29,13,27,277.80
2018,06,29,13,28,289.30
2018,06,29,13,29,303.20
2018,06,29,13,30,318.40
2018,06,29,13,31,334.30
2018,06,29,13,32,351.40
2018,06,29,13,33,372.90
2018,06,29,13,34,396.80
2018,06,29,13,35,422.10
2018,06,29,13,36,453.30
2018,06,29,13,37,494.20
2018,06,29,13,38,533.60
2018,06,29,13,39,602.70
2018,06,29,13,40,649.00
2018,06,29,13,41,551.30
2018,06,29,13,42,464.40
2018,06,29,13,43,435.50
2018,06,29,13,44,416.30
2018,06,29,13,45,403.50
2018,06,29,13,46,394.90
2018,06,29,13,47,389.90
2018,06,29,13,48,388.00
2018,06,29,13,49,392.60
2018,06,29,13,50,400.60
2018,06,29,13,51,413.20
2018,06,29,13,52,427.50
2018,06,29,13,53,445.20
2018,06,29,13,54,468.90
2018,06,29,13,55,501.60
2018,06,29,13,56,585.10
2018,06,29,13,57,642.30
2018,06,29,13,58,627.40
2018,06,29,13,59,608.00
2018,06,29,14,00,554.20
2018,06,29,14,01,545.30
2018,06,29,14,02,535.70
2018,06,29,14,03,507.00
2018,06,29,14,04,473.40
2018,06,29,14,05,448.70
2018,06,29,14,06,438.80
2018,06,29,14,07,430.10
2018,06,29,14,08,424.40
2018,06,29,14,09,418.70
2018,06,29,14,10,401.30
2018,06,29,14,11,373.20
2018,06,29,14,12,357.00
2018,06,29,14,13,351.20
2018,06,29,14,14,333.20
2018,06,29,14,15,326.90
2018,06,29,14,16,318.60
2018,06,29,14,17,302.90
2018,06,29,14,18,286.00
2018,06,29,14,19,272.00
2018,06,29,14,20,272.00
2018,06,29,14,21,266.70
2018,06,29,14,22,254.40
2018,06,29,14,23,251.00
2018,06,29,14,24,258.10
2018,06,29,14,25,276.70
2018,06,29,14,26,296.80
2018,06,29,14,27,311.90
2018,06,29,14,28,327.00
2018,06,29,14,29,334.00
2018,06,29,14,30,326.10
2018,06,29,14,31,314.90
2018,06,29,14,32,317.90
2018,06,29,14,33,332.30
2018,06,29,14,34,347.70
2018,06,29,14,35,353.20
2018,06,29,14,36,368.90
2018,06,29,14,37,413.80
2018,06,29,14,38,436.60
2018,06,29,14,39,444.50
2018,06,29,14,40,473.70
2018,06,29,14,41,490.30
2018,06,29,14,42,441.70
2018,06,29,14,43,402.50
2018,06,29,14,44,387.40
2018,06,29,14,45,406.70
2018,06,29,14,46,409.80
2018,06,29,14,47,392.10
2018,06,29,14,48,378.40
2018,06,29,14,49,361.20
2018,06,29,14,50,348.90
2018,06,29,14,51,341.10
2018,06,29,14,52,335.20
2018,06,29,14,53,331.20
2018,06,29,14,54,356.80
2018,06,29,14,55,386.60
2018,06,29,14,56,408.00
2018,06,29,14,57,410.30
2018,06,29,14,58,395.70
2018,06,29,14,59,380.90
2018,06,29,15,00,376.70
2018,06,29,15,01,395.00
2018,06,29,15,02,441.00
2018,06,29,15,03,483.00
2018,06,29,15,04,528.00
2018,06,29,15,05,532.00
2018,06,29,15,06,480.90
2018,06,29,15,07,475.50
2018,06,29,15,08,495.00
2018,06,29,15,09,531.20
2018,06,29,15,10,528.50
2018,06,29,15,11,503.00
2018,06,29,15,12,503.00
2018,06,29,15,13,526.60
2018,06,29,15,14,480.30
2018,06,29,15,15,422.40
2018,06,29,15,16,372.80
2018,06,29,15,17,338.50
2018,06,29,15,18,315.20
2018,06,29,15,19,305.30
2018,06,29,15,20,302.50
2018,06,29,15,21,307.20
2018,06,29,15,22,301.10
2018,06,29,15,23,296.40
2018,06,29,15,24,297.90
2018,06,29,15,25,310.60
2018,06,29,15,26,333.10
2018,06,29,15,27,360.00
2018,06,29,15,28,377.20
2018,06,29,15,29,395.70
2018,06,29,15,30,430.10
2018,06,29,15,31,495.80
2018,06,29,15,32,567.10
2018,06,29,15,33,632.20
2018,06,29,15,34,717.10
2018,06,29,15,35,787.00
2018,06,29,15,36,793.00
2018,06,29,15,37,793.00
2018,06,29,15,38,736.90
2018,06,29,15,39,645.00
2018,06,29,15,40,534.30
2018,06,29,15,41,448.50
2018,06,29,15,42,386.70
2018,06,29,15,43,399.60
2018,06,29,15,44,434.80
2018,06,29,15,45,425.80
2018,06,29,15,46,439.50
2018,06,29,15,47,432.10
2018,06,29,15,48,423.90
2018,06,29,15,49,377.70
2018,06,29,15,50,342.30
2018,06,29,15,51,340.80
2018,06,29,15,52,353.80
2018,06,29,15,53,364.10
2018,06,29,15,54,371.20
2018,06,29,15,55,366.10
2018,06,29,15,56,347.90
2018,06,29,15,57,335.90
2018,06,29,15,58,353.80
2018,06,29,15,59,375.30
2018,06,29,16,00,369.50
2018,06,29,16,01,333.40
2018,06,29,16,02,296.60
2018,06,29,16,03,273.30
2018,06,29,16,04,284.20
2018,06,29,16,05,309.80
2018,06,29,16,06,329.60
2018,06,29,16,07,336.00
2018,06,29,16,08,330.10
2018,06,29,16,09,315.90
2018,06,29,16,10,301.90
2018,06,29,16,11,302.40
2018,06,29,16,12,316.20
2018,06,29,16,13,336.30
2018,06,29,16,14,346.00
2018,06,29,16,15,335.70
2018,06,29,16,16,314.10
2018,06,29,16,17,286.90
2018,06,29,16,18,267.00
2018,06,29,16,19,268.20
2018,06,29,16,20,271.60
2018,06,29,16,21,271.00
2018,06,29,16,22,274.20
2018,06,29,16,23,285.10
2018,06,29,16,24,323.90
2018,06,29,16,25,408.00
2018,06,29,16,26,440.30
2018,06,29,16,27,462.00
2018,06,29,16,28,462.00
2018,06,29,16,29,503.80
2018,06,29,16,30,527.00
2018,06,29,16,31,590.70
2018,06,29,16,32,571.90
2018,06,29,16,33,412.00
2018,06,29,16,34,394.50
2018,06,29,16,35,373.00
2018,06,29,16,36,362.10
2018,06,29,16,37,363.20
2018,06,29,16,38,370.20
2018,06,29,16,39,348.20
2018,06,29,16,40,310.50
2018,06,29,16,41,280.80
2018,06,29,16,42,275.20
2018,06,29,16,43,297.10
2018,06,29,16,44,352.30
2018,06,29,16,45,363.80
2018,06,29,16,46,395.40
2018,06,29,16,47,368.60
2018,06,29,16,48,336.70
2018,06,29,16,49,325.00
2018,06,29,16,50,327.60
2018,06,29,16,51,323.70
2018,06,29,16,52,303.50
2018,06,29,16,53,284.00
2018,06,29,16,54,275.00
2018,06,29,16,55,261.20
2018,06,29,16,56,252.90
2018,06,29,16,57,250.30
2018,06,29,16,58,248.40
2018,06,29,16,59,239.60
2018,06,29,17,00,227.10
2018,06,29,17,01,212.70
2018,06,29,17,02,202.30
2018,06,29,17,03,202.10
2018,06,29,17,04,213.20
2018,06,29,17,05,236.20
2018,06,29,17,06,241.00
2018,06,29,17,07,270.20
2018,06,29,17,08,265.00
2018,06,29,17,09,267.90
2018,06,29,17,10,275.60
2018,06,29,17,11,307.80
2018,06,29,17,12,301.00
2018,06,29,17,13,271.40